RADUGA 9 [-]

Last updated on Jan. 28, 2020, 4:41 a.m. UTC

1 12618U 81069A   20026.92987020  .00000136  00000-0  00000+0 0  9998
2 12618  11.7905 317.5170 0003962  39.2094 142.8012  1.00308141104937
UTC
Height (km)
Latitude
Longitude
Inclination
Orbital Period
UTC large
Height (km)
Speed (km/s)
/
Latitude / Longitude
Inclination (degrees)
Orbital Period (minutes)
Azimuth
Elevation
Range (km)
Doppler Factor
iOS Compass Heading
iOS Angle

Next 30 passes for location: Hong Kong

Rise time Rise Azimuth (degrees) Set time Set Azimuth (degrees) Duration Max altitude (degrees)

No matching passes for this satellites